| time (UTC) | temp C | wind direction | speed KPH | gust KPH | rain 1hr cm | rain 24hr cm | rain mn cm | humidity % | barometer mb |
| 20260506113017 | 11 | 0.0 | 0.0 | 0.00 | 0.03 | 0.00 | 94 | 1019.1 | |
| 20260506111517 | 11 | 0.0 | 0.0 | 0.00 | 0.03 | 0.00 | 94 | 1019.0 | |
| 20260506110017 | 11 | 0.0 | 0.0 | 0.00 | 0.03 | 0.00 | 94 | 1018.8 | |
| 20260506104517 | 11 | 0.0 | 0.0 | 0.00 | 0.03 | 0.00 | 94 | 1018.8 | |
| 20260506103017 | 11 | 0.0 | 0.0 | 0.00 | 0.03 | 0.00 | 94 | 1018.8 | |
| 20260506101517 | 11 | 0.0 | 0.0 | 0.00 | 0.03 | 0.00 | 94 | 1018.7 | |
| 20260506100017 | 11 | 0.0 | 0.0 | 0.00 | 0.03 | 0.00 | 93 | 1018.7 | |
| 20260506094517 | 11 | 0.0 | 0.0 | 0.00 | 0.03 | 0.00 | 93 | 1018.6 | |
| 20260506093017 | 11 | 0.0 | 0.0 | 0.00 | 0.03 | 0.00 | 93 | 1018.6 | |
| 20260506091517 | 11 | 0.0 | 0.0 | 0.00 | 0.03 | 0.00 | 93 | 1018.5 | |
| 20260506090037 | 11 | 0.0 | 0.0 | 0.00 | 0.03 | 0.00 | 93 | 1018.6 | |
| 20260506084517 | 11 | 0.0 | 0.0 | 0.00 | 0.03 | 0.00 | 93 | 1018.6 | |
| 20260506083017 | 11 | 0.0 | 0.0 | 0.00 | 0.03 | 0.00 | 93 | 1018.5 | |
| 20260506081517 | 11 | 0.0 | 0.0 | 0.00 | 0.03 | 0.00 | 93 | 1018.4 | |
| 20260506073017 | 11 | 0.0 | 0.0 | 0.00 | 0.03 | 0.00 | 93 | 1018.3 | |
| 20260506071517 | 11 | 0.0 | 0.0 | 0.00 | 0.03 | 0.00 | 93 | 1018.3 | |
| 20260506061516 | 11 | 0.0 | 0.0 | 0.00 | 0.13 | 0.08 | 92 | 1017.9 | |
| 20260506044516 | 11 | 0.0 | 0.0 | 0.00 | 0.25 | 0.08 | 92 | 1017.0 | |
| 20260506043016 | 11 | 0.0 | 0.0 | 0.00 | 0.41 | 0.08 | 92 | 1016.9 | |
| 20260506041516 | 11 | 0.0 | 0.0 | 0.00 | 0.56 | 0.08 | 92 | 1016.7 | |
| 20260506040016 | 11 | 0.0 | 0.0 | 0.00 | 0.81 | 0.08 | 92 | 1016.6 | |
| 20260506034516 | 11 | 0.0 | 0.0 | 0.00 | 1.17 | 0.08 | 91 | 1016.3 | |
| 20260506033016 | 11 | 0.0 | 0.0 | 0.00 | 1.40 | 0.08 | 91 | 1016.0 | |
| 20260506031516 | 11 | 0.0 | 0.0 | 0.00 | 1.60 | 0.08 | 91 | 1015.8 | |
| 20260506030056 | 11 | 0.0 | 0.0 | 0.00 | 1.68 | 0.08 | 90 | 1016.0 | |
| 20260506024536 | 12 | 0.0 | 0.0 | 0.00 | 1.75 | 0.08 | 90 | 1015.8 | |
| 20260506023016 | 12 | 0.0 | 0.0 | 0.00 | 1.96 | 0.08 | 90 | 1015.7 | |
| 20260506021516 | 12 | 0.0 | 0.0 | 0.00 | 2.16 | 0.08 | 90 | 1015.4 | |
| 20260506020056 | 12 | 0.0 | 0.0 | 0.00 | 2.18 | 0.08 | 89 | 1015.4 | |
| 20260506014516 | 12 | 0.0 | 0.0 | 0.00 | 2.18 | 0.08 | 90 | 1015.1 | |
| 20260506013016 | 12 | 0.0 | 0.0 | 0.00 | 2.21 | 0.08 | 90 | 1015.1 | |
| 20260506011516 | 12 | 0.0 | 0.0 | 0.00 | 2.24 | 0.08 | 89 | 1014.9 | |
| 20260506010015 | 12 | 0.0 | 0.0 | 0.00 | 2.29 | 0.08 | 89 | 1015.2 | |
| 20260506004516 | 12 | 0.0 | 0.0 | 0.00 | 2.29 | 0.08 | 87 | 1015.2 | |
| 20260506003015 | 12 | 0.0 | 0.0 | 0.00 | 2.36 | 0.08 | 88 | 1015.1 | |
| 20260506001516 | 12 | 0.0 | 0.0 | 0.00 | 2.49 | 0.08 | 88 | 1015.0 | |
| 20260506000015 | 12 | 0.0 | 0.0 | 0.00 | 2.64 | 0.08 | 88 | 1015.0 | |
| 20260505234536 | 12 | 0.0 | 0.0 | 0.00 | 2.74 | 0.08 | 88 | 1014.5 | |
| 20260505233055 | 12 | 0.0 | 0.0 | 0.00 | 2.74 | 0.08 | 89 | 1014.9 | |
| 20260505231515 | 12 | 0.0 | 0.0 | 0.00 | 2.77 | 0.08 | 89 | 1014.9 | |
| 20260505230016 | 12 | 0.0 | 0.0 | 0.00 | 2.87 | 0.08 | 89 | 1014.8 | |
| 20260505224516 | 12 | 0.0 | 0.0 | 0.00 | 2.90 | 0.08 | 90 | 1014.9 | |
| 20260505223015 | 12 | 0.0 | 0.0 | 0.00 | 2.92 | 0.08 | 90 | 1015.0 | |
| 20260505221516 | 12 | 0.0 | 0.0 | 0.00 | 2.95 | 0.08 | 90 | 1014.9 | |
| 20260505220016 | 12 | 0.0 | 0.0 | 0.00 | 3.02 | 0.08 | 89 | 1015.1 | |
| 20260505214516 | 12 | 0.0 | 0.0 | 0.00 | 3.07 | 0.08 | 89 | 1015.4 | |
| 20260505213015 | 11 | 0.0 | 0.0 | 0.00 | 3.07 | 0.08 | 90 | 1015.3 | |
| 20260505211516 | 11 | 0.0 | 0.0 | 0.00 | 3.10 | 0.08 | 91 | 1015.4 | |
| 20260505210015 | 11 | 0.0 | 0.0 | 0.00 | 3.10 | 0.08 | 92 | 1015.2 | |
| 20260505204515 | 11 | 0.0 | 0.0 | 0.00 | 3.10 | 0.08 | 93 | 1015.1 | |
| 20260505203015 | 11 | 0.0 | 0.0 | 0.00 | 3.12 | 0.08 | 92 | 1015.0 | |
| 20260505201516 | 11 | 0.0 | 0.0 | 0.00 | 3.12 | 0.08 | 92 | 1015.0 | |
| 20260505200036 | 11 | 0.0 | 0.0 | 0.00 | 3.15 | 0.08 | 92 | 1015.1 | |
| 20260505194516 | 11 | 0.0 | 0.0 | 0.00 | 3.15 | 0.08 | 92 | 1015.1 | |
| 20260505193035 | 11 | 0.0 | 0.0 | 0.00 | 3.17 | 0.08 | 92 | 1015.0 | |
| 20260505191535 | 11 | 0.0 | 0.0 | 0.00 | 3.17 | 0.08 | 92 | 1014.9 | |
| 20260505190015 | 11 | 0.0 | 0.0 | 0.00 | 3.17 | 0.08 | 92 | 1014.9 | |
| 20260505184516 | 11 | 0.0 | 0.0 | 0.00 | 3.17 | 0.08 | 92 | 1014.9 | |
| 20260505183016 | 11 | 0.0 | 0.0 | 0.00 | 3.17 | 0.08 | 93 | 1014.9 | |
| 20260505181516 | 10 | 0.0 | 0.0 | 0.00 | 3.17 | 0.08 | 94 | 1014.7 | |
| 20260505180015 | 10 | 0.0 | 0.0 | 0.00 | 3.17 | 0.08 | 95 | 1014.7 | |
| 20260505174616 | 10 | 0.0 | 0.0 | 0.00 | 3.17 | 0.08 | 95 | 1014.7 | |
| 20260505173015 | 10 | 0.0 | 0.0 | 0.03 | 3.17 | 0.08 | 96 | 1014.6 | |
| 20260505171515 | 10 | 0.0 | 0.0 | 0.03 | 3.17 | 0.08 | 96 | 1014.5 | |
| 20260505170015 | 10 | 0.0 | 0.0 | 0.03 | 3.17 | 0.08 | 96 | 1014.4 | |
| 20260505164515 | 10 | 0.0 | 0.0 | 0.03 | 3.17 | 0.08 | 96 | 1014.3 | |
| 20260505163017 | 9 | 0.0 | 0.0 | 0.00 | 3.15 | 0.05 | 96 | 1014.5 | |
| 20260505161517 | 10 | 0.0 | 0.0 | 0.00 | 3.15 | 0.05 | 97 | 1014.4 | |
| 20260505153017 | 8 | 0.0 | 0.0 | 0.00 | 3.15 | 0.05 | 96 | 1014.0 | |
| 20260505151558 | 8 | 0.0 | 0.0 | 0.00 | 3.15 | 0.05 | 96 | 1013.8 | |
| 20260505124515 | 8 | 0.0 | 0.0 | 0.00 | 3.15 | 0.05 | 96 | 1012.9 | |
| 20260505123017 | 8 | 0.0 | 0.0 | 0.00 | 3.15 | 0.05 | 96 | 1012.8 | |
| 20260505121517 | 8 | 0.0 | 0.0 | 0.00 | 3.15 | 0.05 | 96 | 1012.9 | |
| 20260505120017 | 8 | 0.0 | 0.0 | 0.00 | 3.15 | 0.05 | 96 | 1012.8 | |
| 20260505114517 | 8 | 0.0 | 0.0 | 0.00 | 3.15 | 0.05 | 96 | 1013.0 |